Location: Remedello Sotto
(45.2500°N, 10.3667°E)
Time: 11:26:41
(UTC+00:00)

CZ-4B DEB - Pass Details

Date: 03 February 2023
Orbit: 839 x 859 km, 99.1° (Epoch: 31 March)

Event Time Altitude Azimuth Distance (km) Brightness Sun altitude
Rises 17:45:10 0° 167° (SSE) 3,378 7.3 -13.8°
Reaches altitude 10° 17:47:31 10° 168° (SSE) 2,448 6.6 -14.2°
Maximum altitude 17:52:57 80° 255° (WSW) 858 4.3 -15.2°
Drops below altitude 10° 17:58:26 10° 343° (NNW) 2,473 6.7 -16.1°
Sets 18:00:49 0° 345° (NNW) 3,415 7.5 -16.5°
